Wind_Speed
4 3 3 2 1 2 2 3 6 9 9 9 9 9 10 10 10 11 12 11 11 11 11 11 11 11 10 10 10 10 10 10 11 11 10 10 10 10 10 11 10 10 10 10 9 9 9 9 8
4 4 3 2 1 0 1 5 8 10 11 10 10 10 10 11 11 11 12 12 11 12 12 12 12 11 10 11 11 12 11 12 12 12 12 11 11 11 11 11 11 11 11 10 10 10 10 10 10
5 4 4 3 2 3 3 6 9 11 11 11 11 10 11 11 12 13 13 13 12 12 12 12 12 11 11 12 12 12 12 13 13 13 12 12 12 12 12 12 12 12 12 12 11 11 11 11 11
5 5 5 3 4 4 7 8 10 12 13 12 12 12 12 12 13 13 14 14 14 13 13 13 12 12 12 12 13 13 13 13 13 13 13 13 12 13 13 13 13 12 12 13 12 12 12 12 12
6 6 5 4 5 6 10 11 12 13 13 13 12 12 12 13 13 14 14 14 14 13 12 13 12 12 12 12 13 14 14 13 13 13 13 14 14 14 14 14 14 13 13 13 13 13 13 13 13
8 7 6 7 8 9 12 12 10 12 13 13 13 14 13 14 14 14 14 14 14 13 12 13 13 13 12 12 13 14 14 13 14 14 14 14 15 14 14 14 13 14 14 14 14 14 14 14 14
9 8 8 10 9 9 12 13 11 12 12 14 14 15 15 15 15 15 15 15 15 14 13 14 12 12 13 13 14 14 14 14 15 15 15 15 15 15 14 15 14 14 14 14 15 14 15 15 14
10 9 8 9 11 11 13 14 13 13 13 15 15 15 15 16 16 15 15 15 15 14 14 15 14 13 14 14 14 14 14 15 15 15 16 16 16 16 15 15 16 15 15 15 16 16 15 15 14
10 10 10 9 12 12 13 14 14 13 14 15 16 16 17 17 17 17 16 15 15 15 14 14 14 14 15 15 15 16 15 15 15 16 16 16 16 16 16 16 16 16 16 16 16 16 16 16 16
11 12 12 11 13 14 14 13 13 13 14 15 17 17 18 17 17 17 16 15 16 16 15 14 14 15 15 15 16 17 16 16 15 15 15 15 16 16 16 16 16 17 16 16 16 17 16 17 17
14 15 13 13 14 15 14 13 13 13 13 15 17 18 18 17 17 17 17 17 16 15 15 15 16 16 16 16 17 17 16 16 15 15 16 16 16 15 15 15 16 17 16 17 16 16 17 17 18
14 13 13 13 14 14 13 13 14 13 13 16 18 19 19 18 16 17 18 17 16 16 17 17 16 16 16 17 17 17 17 17 15 15 15 15 15 15 15 15 15 15 15 16 16 17 18 18 18
15 14 14 14 15 15 14 14 14 13 15 17 18 18 19 19 18 19 17 16 16 16 17 17 16 16 16 16 17 17 17 16 15 14 14 13 13 14 15 14 15 15 16 17 17 17 18 19 19
14 15 14 13 14 14 14 14 13 14 17 18 18 19 19 20 19 18 17 16 17 17 17 15 15 16 16 16 16 17 17 16 15 15 14 13 13 14 14 14 15 15 16 17 17 17 18 18 19
13 14 13 12 12 12 13 14 14 15 17 18 18 18 18 19 18 18 16 16 16 16 16 16 16 16 16 16 16 16 16 16 15 15 14 13 13 12 13 14 14 15 15 17 18 17 18 18 18
12 13 14 13 13 12 12 13 14 15 16 17 17 17 17 18 17 17 16 15 15 15 15 15 16 16 16 16 15 15 15 15 15 15 14 14 13 13 14 15 15 15 15 16 16 16 18 19 19
12 13 14 14 13 12 13 15 16 16 17 17 17 18 18 18 17 17 16 15 15 15 15 15 15 15 15 14 14 14 14 14 14 14 14 14 14 13 14 15 15 15 16 16 16 16 17 18 19
13 14 16 16 13 11 14 16 16 17 17 17 17 17 17 17 16 17 17 15 15 14 15 14 14 14 14 14 13 13 13 14 13 13 12 13 13 13 14 14 15 16 16 16 16 17 18 18 19
13 13 14 15 14 13 15 16 16 16 15 17 17 17 17 16 15 16 17 15 14 13 13 13 14 14 14 13 13 13 13 13 12 12 12 13 13 13 14 15 15 16 16 16 16 17 17 18 19
14 15 15 15 15 15 16 17 16 16 16 16 16 16 16 15 16 17 16 15 14 13 13 13 13 14 14 13 13 13 13 13 12 12 12 13 13 13 14 15 15 16 17 17 17 17 17 17 18
16 16 16 16 15 15 17 18 17 17 18 15 15 16 16 15 15 16 15 14 13 13 13 13 13 13 13 13 13 13 13 12 13 13 13 13 13 14 15 16 15 16 17 17 17 17 17 17 17
17 17 17 16 15 15 17 19 16 18 18 17 15 15 16 15 15 15 14 13 12 11 12 13 13 13 12 12 12 13 12 13 13 13 13 13 14 15 16 16 15 16 15 16 16 17 17 18 18
17 16 17 16 16 18 18 19 18 17 18 16 16 16 15 15 15 14 13 13 11 11 11 12 12 12 11 11 11 12 12 12 12 13 13 14 15 15 15 15 15 15 15 16 17 17 18 18 18
16 15 16 15 16 18 16 18 17 18 16 15 16 15 14 15 14 14 13 13 12 12 11 11 11 11 11 11 12 12 13 13 13 14 14 14 15 15 15 15 15 16 16 17 17 17 17 17 17
16 14 14 15 16 17 16 17 18 17 15 15 15 15 15 14 14 15 15 14 14 14 12 11 11 11 12 12 13 13 14 14 14 15 15 15 15 16 16 16 16 16 16 16 17 17 17 17 17
15 14 14 15 15 16 15 17 17 14 15 15 15 15 15 14 15 15 14 14 14 14 13 12 12 12 12 12 13 13 14 15 15 15 15 15 16 16 16 16 16 17 16 17 17 18 18 17 17
15 15 15 16 16 17 16 17 15 16 16 15 14 15 15 14 15 15 14 13 14 14 14 13 13 13 12 13 13 14 14 15 15 15 15 15 16 16 16 17 17 17 17 17 17 17 17 17 17
15 16 17 16 17 16 18 17 17 16 17 17 14 14 15 15 15 15 15 14 13 13 14 14 14 14 13 13 14 15 15 16 16 16 16 15 16 16 16 16 16 16 17 17 16 16 16 17 17
17 16 17 17 16 16 16 16 18 17 18 16 14 15 14 15 15 15 14 14 14 14 14 14 14 14 15 15 15 15 16 16 16 16 16 16 16 16 16 16 16 16 16 17 17 17 17 17 18
16 16 17 18 17 15 17 19 18 17 16 17 16 16 16 16 16 15 15 15 15 14 14 14 15 15 16 16 16 16 16 16 16 16 17 17 16 16 16 16 16 16 17 17 18 18 17 17 16
Wind_Direction
188 177 165 139 83 70 31 299 281 281 285 284 285 287 285 287 289 289 288 292 295 294 291 287 284 282 280 278 277 280 273 268 265 263 264 266 263 261 261 258 255 252 247 248 249 248 248 248 248
194 185 174 167 159 240 276 280 276 280 285 288 288 290 288 288 287 290 295 296 294 293 291 287 283 281 279 278 275 273 269 270 266 265 265 266 265 262 261 259 255 254 248 249 253 252 252 254 253
201 191 192 218 269 273 270 286 281 285 286 290 291 291 289 292 290 290 295 295 294 293 290 287 284 281 280 280 279 275 272 272 267 265 266 268 268 266 261 257 258 257 251 251 252 253 254 254 253
207 194 202 235 274 275 273 276 281 288 291 291 294 293 292 294 294 297 296 294 293 292 287 285 282 281 281 282 280 279 276 272 268 267 269 270 269 267 263 259 262 257 256 250 250 251 252 254 253
209 204 216 251 265 265 266 269 277 281 288 292 296 294 295 294 296 298 297 295 293 291 286 285 281 280 281 282 279 281 277 271 267 269 271 270 267 269 264 260 261 260 259 253 251 252 253 255 255
210 213 230 260 254 260 272 277 276 281 287 290 295 298 298 298 297 299 298 296 293 292 288 284 282 280 280 281 285 286 277 270 268 271 270 270 267 268 264 260 258 260 259 255 254 255 258 259 262
217 216 237 256 256 260 266 273 277 279 285 288 292 295 297 297 298 301 301 299 294 293 289 286 286 283 280 282 283 285 281 276 272 272 273 270 267 266 263 261 260 262 259 257 257 256 259 261 264
219 218 232 253 260 259 267 272 277 279 283 288 290 291 296 302 301 301 302 299 296 295 289 286 287 286 281 281 283 284 285 281 278 277 279 274 269 266 264 262 262 262 259 258 258 260 261 263 265
223 226 235 249 257 260 266 272 273 275 282 288 291 293 296 299 300 301 300 296 295 295 290 288 288 288 285 284 283 282 286 284 282 281 281 275 269 266 265 265 264 264 261 261 261 259 261 264 265
230 237 238 244 252 261 269 277 276 278 284 287 290 293 298 298 296 297 299 295 296 292 290 290 290 287 285 284 284 283 286 285 283 281 279 275 271 269 267 269 267 266 262 263 263 261 260 263 264
237 243 242 244 251 259 264 276 276 278 282 285 289 294 295 298 298 299 298 295 295 294 292 292 293 292 289 286 284 286 287 286 283 281 281 277 273 270 270 273 270 268 265 265 264 262 261 263 266
240 244 244 249 252 258 263 269 272 275 285 286 292 298 300 298 300 302 300 298 299 297 294 292 293 294 292 288 287 287 288 286 282 282 279 278 275 273 273 273 270 270 267 267 267 267 263 264 266
241 244 245 248 249 249 259 268 276 276 280 286 293 298 300 304 303 302 298 299 297 293 292 290 292 294 294 291 290 290 290 288 286 285 282 278 277 273 272 273 272 272 270 271 272 270 268 266 267
240 243 244 248 253 255 259 267 278 281 286 293 295 295 298 302 301 299 297 293 291 291 291 289 290 294 295 292 290 289 288 287 289 286 288 284 283 277 271 275 276 274 274 275 274 275 274 269 268
240 244 242 246 253 256 261 269 280 287 289 293 295 296 297 303 303 301 297 292 291 293 291 292 294 295 296 295 290 289 288 285 288 288 289 285 282 282 279 279 278 279 279 279 280 277 276 274 270
239 246 249 249 252 254 265 278 286 284 289 294 295 297 300 302 302 302 298 293 292 293 293 295 294 296 297 294 291 287 284 285 288 285 284 285 283 283 284 283 282 283 282 282 279 278 275 275 274
243 250 255 254 255 261 269 272 279 284 290 292 294 299 303 304 303 306 301 294 292 293 292 294 294 297 298 297 293 289 288 287 288 283 284 287 283 282 284 285 283 285 286 286 282 281 276 276 276
241 248 252 261 253 254 265 270 276 280 286 291 294 298 302 302 302 303 301 296 293 292 291 291 293 295 298 295 294 290 291 290 287 286 285 289 291 289 284 285 286 287 290 289 288 284 282 279 277
241 250 255 259 260 257 265 270 271 273 285 292 293 297 301 299 302 303 300 297 296 295 291 288 290 293 295 295 294 291 289 292 292 288 290 292 296 297 293 291 289 289 292 291 289 288 288 286 281
235 247 252 252 257 259 267 272 274 277 280 285 289 292 296 297 302 304 301 300 294 292 292 293 294 293 295 297 297 294 293 292 292 292 292 298 298 300 301 296 292 293 294 296 293 292 292 291 288
243 244 245 254 258 263 268 270 269 276 278 280 285 289 292 294 302 305 305 301 298 290 287 291 294 294 296 297 297 296 295 294 292 292 296 298 298 298 299 297 294 296 296 298 296 292 293 293 291
242 245 248 250 256 261 265 271 273 280 280 280 283 288 293 294 298 301 302 302 300 294 291 291 293 294 295 294 297 300 298 294 293 294 294 295 296 297 299 297 296 297 299 301 300 295 293 294 293
243 246 252 253 256 256 256 264 273 279 279 281 286 288 288 291 293 297 301 299 299 298 297 294 291 293 295 298 301 305 302 298 296 295 295 295 297 301 301 300 302 303 302 301 301 296 293 294 292
245 248 253 255 259 263 262 263 267 276 284 290 290 287 287 289 292 292 296 295 296 299 300 300 300 296 294 295 298 303 304 303 301 299 301 301 301 302 303 303 304 305 304 302 301 299 296 294 293
243 248 257 257 259 265 266 267 269 274 282 291 291 289 287 288 293 289 288 289 290 293 296 298 299 296 293 293 293 296 300 301 302 303 301 301 302 301 303 306 306 306 307 305 302 300 300 297 292
241 240 251 260 265 271 271 269 270 273 279 286 284 285 288 289 290 291 291 287 286 286 286 290 296 296 294 294 293 295 298 299 301 303 303 303 303 303 303 306 309 309 307 308 307 307 306 302 298
236 239 244 259 269 269 270 270 268 271 274 280 282 288 292 293 297 297 295 289 287 285 287 290 294 294 292 296 298 299 301 302 303 305 305 305 307 307 305 305 308 310 311 312 312 310 308 306 302
238 244 245 253 257 263 270 268 269 276 279 276 282 289 293 295 298 296 293 285 283 284 288 290 292 298 302 301 301 300 302 303 304 305 305 305 307 310 310 311 312 313 315 317 317 315 312 310 308
239 243 248 254 254 261 270 269 271 277 278 278 281 286 290 290 287 285 288 287 282 282 286 289 290 293 297 298 299 300 303 306 307 307 303 303 304 304 307 308 309 312 315 318 317 315 312 312 311
245 242 246 250 252 261 271 268 267 272 275 279 284 286 288 288 285 286 287 288 284 284 287 287 288 291 294 295 295 298 301 304 304 303 302 302 303 303 304 305 307 310 314 315 315 315 315 314 314
Height
5886 5886 5887 5889 5890 5890 5891 5891 5890 5889 5887 5886 5886 5885 5884 5884 5884 5885 5881 5879 5879 5878 5878 5877 5877 5877 5876 5876 5875 5875 5874 5875 5874 5874 5874 5874 5874 5874 5874 5874 5874 5874 5874 5875 5875 5875 5875 5875 5876
5885 5886 5887 5888 5889 5889 5890 5890 5889 5887 5886 5885 5884 5884 5883 5882 5881 5880 5878 5878 5877 5877 5876 5876 5875 5875 5874 5874 5873 5873 5872 5872 5872 5872 5872 5872 5872 5872 5872 5872 5872 5872 5872 5873 5873 5873 5874 5874 5874
5884 5885 5886 5887 5887 5888 5889 5889 5887 5885 5885 5884 5883 5883 5882 5881 5880 5878 5877 5876 5875 5875 5874 5873 5873 5872 5872 5871 5871 5871 5870 5870 5870 5870 5870 5869 5869 5869 5869 5869 5870 5870 5870 5871 5871 5871 5872 5872 5873
5883 5884 5886 5887 5887 5887 5888 5887 5885 5885 5884 5883 5882 5881 5880 5879 5878 5877 5875 5874 5873 5873 5872 5871 5870 5870 5870 5869 5869 5868 5868 5867 5867 5867 5867 5867 5867 5867 5867 5867 5867 5868 5868 5868 5868 5869 5869 5870 5870
5881 5884 5885 5885 5886 5887 5887 5885 5884 5883 5882 5881 5880 5878 5877 5877 5876 5874 5873 5872 5871 5871 5870 5869 5868 5868 5867 5867 5866 5866 5865 5865 5865 5865 5865 5864 5864 5864 5864 5865 5865 5864 5865 5865 5865 5866 5867 5867 5868
5880 5882 5883 5884 5884 5885 5885 5884 5882 5882 5881 5879 5878 5877 5875 5875 5874 5873 5871 5870 5869 5868 5867 5867 5865 5865 5865 5865 5864 5863 5862 5862 5862 5862 5862 5862 5862 5862 5862 5862 5862 5862 5862 5863 5863 5863 5864 5865 5866
5879 5879 5881 5882 5883 5884 5883 5882 5881 5880 5879 5878 5876 5875 5873 5873 5871 5870 5869 5867 5866 5866 5865 5864 5863 5863 5862 5862 5861 5861 5860 5859 5859 5859 5859 5859 5859 5859 5859 5859 5859 5859 5859 5860 5860 5860 5861 5862 5862
5876 5878 5879 5880 5881 5881 5880 5879 5879 5878 5877 5876 5874 5872 5871 5871 5869 5867 5867 5865 5864 5863 5862 5861 5860 5860 5860 5860 5859 5858 5857 5856 5856 5856 5855 5855 5855 5855 5855 5856 5856 5856 5857 5857 5857 5858 5858 5859 5859
5874 5877 5877 5878 5879 5878 5877 5876 5876 5875 5875 5873 5872 5870 5868 5868 5866 5865 5864 5862 5861 5861 5860 5859 5858 5857 5856 5856 5856 5855 5854 5853 5853 5852 5852 5852 5852 5852 5852 5852 5853 5853 5853 5853 5854 5854 5854 5855 5855
5871 5873 5875 5876 5876 5874 5874 5874 5873 5872 5873 5871 5869 5868 5865 5864 5863 5861 5861 5859 5859 5858 5857 5856 5855 5854 5854 5853 5852 5851 5851 5850 5849 5849 5849 5848 5848 5848 5849 5849 5849 5849 5849 5850 5850 5850 5851 5851 5852
5868 5870 5871 5871 5871 5871 5871 5872 5871 5870 5869 5869 5867 5865 5863 5861 5860 5858 5857 5857 5856 5855 5854 5853 5852 5851 5851 5850 5849 5848 5848 5847 5846 5845 5845 5845 5845 5845 5845 5845 5845 5845 5845 5846 5846 5847 5847 5848 5848
5866 5867 5868 5868 5868 5868 5868 5869 5868 5867 5867 5866 5864 5862 5860 5858 5856 5855 5854 5853 5853 5852 5851 5850 5849 5848 5848 5847 5846 5845 5845 5844 5843 5841 5841 5842 5842 5842 5842 5842 5842 5841 5842 5842 5842 5843 5843 5844 5844
5862 5864 5864 5865 5865 5866 5866 5866 5865 5864 5863 5862 5861 5859 5858 5855 5853 5853 5851 5850 5850 5849 5848 5847 5846 5846 5845 5844 5843 5842 5841 5840 5840 5839 5839 5839 5839 5839 5839 5839 5839 5839 5839 5839 5839 5839 5839 5839 5839
5859 5860 5860 5861 5862 5863 5864 5863 5861 5861 5861 5859 5858 5857 5855 5853 5851 5850 5849 5848 5847 5846 5845 5844 5844 5843 5842 5841 5840 5839 5839 5838 5838 5837 5836 5836 5835 5835 5835 5835 5835 5835 5835 5835 5835 5835 5835 5834 5834
5856 5857 5858 5858 5859 5860 5860 5860 5860 5860 5858 5857 5855 5854 5852 5851 5848 5847 5846 5845 5844 5843 5842 5841 5841 5841 5840 5839 5837 5837 5836 5835 5835 5834 5833 5833 5832 5832 5832 5832 5832 5832 5831 5831 5830 5830 5830 5830 5830
5853 5854 5855 5857 5857 5858 5859 5859 5858 5857 5856 5854 5853 5851 5849 5847 5845 5844 5843 5842 5841 5841 5840 5838 5838 5838 5837 5835 5835 5834 5833 5832 5832 5831 5830 5830 5829 5829 5829 5829 5828 5828 5827 5827 5826 5825 5825 5825 5826
5851 5852 5853 5855 5855 5856 5857 5857 5856 5854 5853 5852 5851 5848 5847 5845 5843 5842 5841 5840 5839 5838 5838 5837 5836 5835 5834 5832 5832 5831 5830 5830 5829 5828 5827 5826 5826 5826 5826 5825 5825 5824 5824 5822 5821 5821 5820 5820 5821
5850 5851 5852 5852 5853 5854 5854 5853 5853 5852 5851 5850 5848 5847 5845 5843 5842 5840 5839 5838 5837 5836 5835 5834 5833 5832 5831 5830 5829 5828 5828 5827 5826 5825 5824 5823 5823 5822 5822 5821 5821 5820 5819 5818 5817 5817 5816 5816 5816
5847 5848 5849 5850 5850 5851 5851 5850 5849 5847 5847 5847 5845 5844 5842 5840 5839 5838 5836 5834 5834 5833 5832 5832 5831 5830 5829 5828 5827 5826 5825 5824 5823 5822 5822 5821 5820 5820 5819 5818 5817 5816 5816 5814 5814 5812 5811 5811 5810
5844 5846 5847 5848 5848 5849 5848 5847 5846 5845 5844 5843 5843 5841 5840 5838 5837 5835 5833 5832 5831 5831 5830 5829 5828 5827 5826 5825 5824 5823 5822 5821 5821 5820 5820 5819 5818 5817 5816 5815 5814 5813 5812 5811 5809 5808 5807 5806 5805
5841 5843 5843 5843 5844 5845 5845 5843 5843 5842 5840 5837 5838 5837 5836 5835 5834 5833 5831 5829 5829 5828 5828 5827 5826 5825 5824 5823 5822 5821 5820 5819 5818 5818 5817 5816 5815 5814 5813 5812 5811 5809 5808 5807 5805 5804 5803 5802 5801
5838 5840 5840 5840 5841 5842 5843 5840 5839 5838 5837 5835 5834 5834 5833 5832 5832 5830 5829 5827 5826 5826 5825 5824 5823 5823 5822 5821 5820 5819 5818 5817 5816 5815 5814 5813 5812 5811 5810 5809 5808 5806 5805 5803 5802 5801 5799 5798 5797
5835 5836 5836 5837 5837 5838 5839 5837 5836 5834 5833 5832 5832 5831 5831 5830 5829 5828 5827 5825 5824 5824 5823 5822 5821 5821 5820 5819 5818 5817 5816 5815 5814 5813 5812 5811 5810 5809 5808 5806 5805 5803 5802 5800 5798 5797 5796 5794 5792
5831 5832 5833 5833 5834 5834 5834 5834 5833 5831 5829 5829 5829 5828 5828 5827 5826 5825 5824 5823 5822 5822 5821 5820 5819 5819 5818 5817 5816 5815 5814 5813 5812 5811 5810 5809 5808 5806 5805 5804 5802 5800 5798 5796 5795 5793 5792 5790 5789
5828 5829 5830 5831 5831 5831 5831 5829 5829 5827 5827 5827 5826 5825 5825 5824 5823 5822 5821 5820 5820 5820 5819 5818 5817 5816 5815 5815 5814 5813 5812 5811 5810 5808 5807 5806 5805 5804 5802 5801 5799 5797 5796 5794 5792 5790 5788 5786 5785
5825 5827 5828 5828 5828 5828 5827 5825 5825 5823 5824 5824 5823 5822 5821 5820 5820 5818 5818 5818 5817 5817 5816 5816 5815 5814 5813 5812 5811 5810 5809 5808 5807 5806 5805 5803 5802 5801 5799 5798 5796 5794 5792 5790 5788 5786 5784 5782 5781
5821 5823 5825 5826 5825 5825 5823 5822 5820 5820 5820 5820 5820 5819 5819 5818 5817 5816 5815 5815 5814 5814 5813 5813 5812 5811 5810 5809 5808 5808 5807 5806 5805 5803 5802 5800 5799 5797 5796 5794 5792 5791 5789 5787 5785 5782 5780 5779 5777
5819 5820 5821 5821 5821 5821 5820 5818 5817 5817 5816 5817 5817 5817 5817 5815 5814 5814 5813 5812 5811 5811 5810 5809 5809 5808 5807 5807 5806 5805 5804 5803 5802 5800 5799 5797 5796 5794 5793 5791 5789 5787 5786 5783 5781 5779 5777 5776 5774
5814 5816 5817 5817 5817 5817 5817 5816 5813 5814 5813 5812 5813 5814 5813 5812 5811 5811 5810 5809 5808 5808 5807 5806 5806 5805 5805 5804 5803 5802 5801 5800 5798 5797 5796 5794 5793 5791 5790 5788 5786 5785 5783 5781 5779 5777 5775 5773 5771
5811 5812 5813 5813 5813 5813 5813 5813 5810 5809 5809 5809 5810 5810 5809 5809 5808 5808 5807 5806 5805 5805 5804 5804 5803 5802 5802 5801 5800 5799 5798 5796 5795 5794 5793 5791 5790 5788 5786 5785 5783 5782 5780 5778 5776 5774 5772 5769 5767